Wind_Speed
19 19 20 21 21 21 20 20 21 21 21 22 23 23 23 24 24 24 23 23 22 22 21 20 19 18 18 17 17 17 17 17 17 17 17 17 17 17 16 17 17 18 19 20 20 20 20 20 19 18 17 16 15 15 15 14 14 13 13 13 13 13 13 13 13 13 14 13 13
20 21 21 22 22 22 21 21 21 21 21 22 22 22 22 22 22 22 22 22 22 22 21 20 19 19 18 18 17 17 18 18 18 18 17 17 17 16 16 17 18 19 19 20 20 21 20 20 19 18 17 16 15 15 15 14 14 14 14 14 15 15 14 14 14 15 15 15 14
22 23 23 23 22 22 21 21 21 21 22 22 23 23 23 23 22 22 22 22 22 21 21 21 20 19 19 18 18 18 18 18 18 17 17 17 17 17 17 18 18 19 20 20 20 20 21 20 20 19 17 16 16 15 15 14 13 13 14 14 15 15 15 14 14 14 14 14 14
24 24 24 23 23 22 21 21 21 21 22 22 23 23 23 23 23 23 23 23 22 22 22 21 21 21 20 20 20 19 19 18 18 18 17 18 18 18 18 19 19 20 20 20 20 20 20 20 20 19 18 17 17 16 15 14 14 14 14 14 15 15 15 14 13 13 13 13 13
25 25 25 25 25 24 23 22 22 21 21 21 22 22 23 23 24 25 25 25 25 24 24 24 24 24 24 23 22 21 20 19 18 17 18 19 20 20 20 20 20 20 20 20 20 21 21 21 21 20 19 18 17 16 15 15 14 14 14 13 13 13 13 12 12 12 13 12 12
25 26 26 26 26 26 26 25 24 23 23 23 23 24 24 25 25 26 27 27 28 28 27 27 26 26 26 25 24 23 21 19 18 18 18 19 21 22 22 21 21 20 20 20 20 21 21 22 21 20 18 16 16 15 14 14 14 14 13 12 12 13 14 14 15 15 14 12 11
27 27 27 27 27 27 27 26 26 26 25 25 26 26 27 28 28 28 29 29 29 30 29 29 28 27 26 26 25 24 22 20 20 19 19 20 21 22 22 22 22 21 20 20 20 20 20 20 19 18 17 16 17 17 16 15 14 13 12 11 13 15 16 16 16 14 12 10 10
27 28 28 28 28 27 27 27 27 27 27 27 28 29 30 31 31 31 31 31 31 30 30 28 27 27 26 26 25 24 23 22 21 20 20 19 19 20 21 22 22 21 20 19 17 17 16 16 15 14 14 15 17 18 18 16 14 12 10 10 11 13 14 15 14 12 10 10 11
27 28 28 28 28 28 27 27 27 27 28 28 29 30 31 32 33 33 33 32 31 30 29 27 26 25 25 25 25 25 24 22 21 20 18 17 17 18 20 21 21 20 19 17 15 13 13 13 12 12 12 15 16 18 18 16 14 12 10 10 11 12 13 13 12 11 11 11 12
27 28 28 28 28 28 28 28 28 28 28 29 29 30 31 32 33 33 32 31 30 28 26 25 24 24 24 24 25 25 23 22 20 18 17 16 16 16 18 19 20 19 18 16 14 13 13 13 12 12 14 17 20 20 19 16 14 13 12 12 13 13 12 12 11 10 10 10 10
27 27 27 27 27 27 28 28 28 28 28 29 30 30 31 31 32 32 31 28 24 22 22 21 20 20 21 22 23 23 22 21 19 17 16 15 15 16 17 20 20 20 18 17 15 14 14 13 12 13 17 19 20 20 17 15 13 12 13 13 13 12 11 10 9 8 8 7 7
27 27 26 26 26 27 27 28 28 28 28 29 29 29 30 30 31 30 27 22 17 15 15 15 15 16 18 20 21 21 21 20 18 17 17 17 17 18 18 19 20 20 19 18 16 14 12 11 12 15 17 19 19 17 14 11 10 11 12 13 13 12 11 9 8 7 6 5 5
26 26 26 25 26 26 27 27 27 28 28 28 28 28 28 29 29 26 21 15 12 10 10 11 12 14 16 18 19 19 19 19 19 19 19 20 20 20 20 21 21 20 19 18 16 14 13 13 13 14 15 15 14 12 11 10 10 11 13 14 14 13 11 9 8 7 5 4 4
26 25 25 25 26 26 26 26 27 27 27 27 26 26 27 27 25 21 17 13 10 9 8 9 10 11 14 16 18 19 20 21 20 20 19 19 19 20 21 22 22 20 19 17 15 13 12 11 11 11 11 11 10 9 9 10 10 12 13 14 14 12 10 8 7 6 5 4 4
26 26 26 26 26 26 26 26 26 25 25 25 25 24 24 25 23 20 17 14 11 9 8 8 8 10 12 15 17 20 20 20 18 17 17 17 18 19 19 20 19 18 16 15 13 11 9 8 8 8 8 8 8 7 7 7 8 9 10 11 10 9 7 5 5 4 4 4 5
26 26 26 26 26 26 26 26 25 24 24 24 24 23 22 23 21 20 18 16 13 10 8 8 8 10 11 14 17 18 17 15 14 14 16 17 17 16 16 17 16 15 14 13 11 10 9 8 6 6 6 7 7 8 7 6 6 6 6 7 7 6 5 4 3 2 2 3 3
27 27 27 27 27 27 26 26 26 25 25 25 24 23 21 21 19 17 16 14 12 10 9 9 9 9 11 12 14 14 13 12 12 13 14 15 15 15 15 15 14 14 13 12 11 10 9 8 7 6 6 7 8 9 9 9 8 8 8 9 9 9 8 7 6 5 5 4 4
28 28 28 28 28 28 28 28 27 27 27 26 25 23 21 20 19 17 14 12 11 10 10 10 9 8 8 9 10 10 11 11 11 12 12 13 13 12 11 11 11 11 11 10 10 10 10 9 9 8 8 8 9 10 9 9 8 8 9 10 11 11 11 10 9 9 8 8 8
29 29 29 29 29 29 29 29 28 28 27 26 24 23 22 22 21 19 15 11 10 10 11 11 10 8 6 6 7 9 10 11 11 12 12 12 11 10 9 8 8 9 10 10 10 10 10 10 10 10 10 10 10 10 10 10 10 11 12 13 13 13 13 13 13 12 12 11 11
28 29 29 29 29 29 29 29 28 27 26 25 24 22 22 23 22 19 15 12 11 11 11 11 10 9 7 6 7 8 10 11 11 11 11 10 10 9 8 8 9 9 10 10 10 10 10 11 11 11 12 12 12 13 13 13 14 14 14 15 15 15 14 14 14 14 14 13 13
28 28 29 29 29 29 28 27 27 26 25 23 22 21 20 19 18 16 14 12 12 11 10 10 11 10 9 8 8 9 10 10 9 9 9 9 9 9 10 10 11 11 11 11 11 11 11 12 13 13 14 14 14 14 14 14 14 14 14 14 14 14 13 13 13 13 13 13 12
28 28 28 28 28 27 27 26 25 24 23 21 20 18 17 15 13 12 12 12 12 12 11 12 11 10 9 9 9 9 8 8 8 8 9 9 10 10 11 11 11 11 11 9 10 11 12 13 14 14 15 15 14 14 13 13 13 13 13 13 13 13 13 13 12 12 12 12 12
29 28 27 27 26 26 25 24 23 22 20 19 17 16 13 11 10 9 10 11 12 12 12 12 11 9 8 8 8 7 7 7 8 9 10 10 10 10 10 10 10 10 9 8 8 10 11 12 13 14 14 14 13 12 12 12 12 12 12 13 13 13 13 13 13 13 13 13 13
28 28 27 26 25 25 24 23 21 20 18 16 15 13 11 9 9 9 9 10 10 11 11 11 9 8 8 8 8 7 7 8 8 9 9 9 9 9 9 9 9 9 8 8 9 9 10 11 12 12 12 12 11 11 11 11 11 12 12 13 13 14 14 14 14 14 15 15 15
27 27 26 25 24 23 23 22 20 18 16 15 13 11 9 9 9 9 9 10 10 11 11 10 8 8 8 8 8 8 8 8 8 8 7 7 7 8 8 9 9 9 9 9 9 9 9 9 9 10 10 10 10 10 10 10 11 12 12 13 14 15 15 15 15 16 16 16 17
26 26 25 24 23 22 22 21 19 17 15 13 12 10 9 9 9 10 10 10 11 10 10 9 9 8 8 8 8 8 8 8 8 7 7 7 7 8 9 9 9 9 9 9 9 9 8 8 7 7 8 9 10 10 11 11 12 12 13 14 14 15 16 16 16 17 17 17 17
25 25 25 24 23 22 21 20 18 16 14 12 11 9 9 9 9 10 10 10 10 10 9 9 9 8 8 8 7 7 6 7 7 7 7 7 8 9 9 10 10 10 10 10 10 9 8 7 6 6 7 8 9 10 11 12 12 12 13 14 14 15 15 16 16 17 17 17 17
24 25 24 24 23 22 20 18 16 14 13 11 10 9 9 9 9 9 10 10 9 9 9 9 8 8 7 6 5 5 6 6 7 7 7 8 9 9 10 11 12 12 12 12 12 11 9 7 6 5 6 7 9 10 11 11 11 12 13 13 14 15 15 16 16 17 17 17 18
24 24 24 23 22 21 19 17 15 13 12 10 10 9 9 9 9 9 9 9 9 9 9 8 8 7 6 5 5 5 6 6 7 7 8 9 10 10 11 12 14 15 15 13 12 11 10 8 6 5 6 7 9 10 11 11 11 12 12 13 14 15 15 16 17 17 18 18 18
23 23 22 22 21 20 18 15 14 13 12 10 10 10 9 9 8 8 8 8 8 8 8 7 7 7 7 7 6 6 6 7 7 8 9 10 11 11 12 13 15 15 13 9 8 8 8 7 5 4 5 7 9 10 11 12 12 12 13 14 14 15 16 17 17 18 18 18 19
23 21 20 20 20 19 17 15 14 13 12 12 11 11 10 9 8 8 8 7 7 7 8 7 7 8 8 8 7 7 7 8 8 9 9 10 11 11 12 15 16 13 9 6 2 3 4 4 3 4 6 8 10 12 13 13 14 14 14 15 15 16 16 17 18 18 19 19 19
22 21 20 20 20 19 18 16 15 14 13 12 11 10 9 8 8 7 7 6 6 7 8 8 8 9 9 9 8 8 8 8 9 9 9 10 11 12 13 15 15 11 7 6 3 1 1 3 5 7 9 11 13 14 15 15 15 15 15 15 16 17 17 18 18 19 19 20 20
23 21 21 21 21 20 19 17 15 14 12 10 10 9 8 8 8 7 7 7 7 8 8 9 9 10 10 9 9 9 8 8 8 9 9 10 11 12 13 14 12 9 7 7 6 5 5 6 8 9 11 13 15 16 16 16 15 15 15 16 16 17 18 18 19 19 20 20 20
24 23 22 21 21 20 19 17 15 13 11 10 9 9 9 8 8 8 8 8 9 10 10 10 10 10 10 9 8 8 8 8 9 10 11 11 11 11 12 13 10 9 9 8 8 9 9 10 11 12 14 16 17 18 17 17 16 16 16 16 17 17 18 18 19 19 19 19 18
25 23 22 21 20 19 17 15 13 12 11 10 10 9 9 9 10 10 10 10 11 11 11 11 11 10 9 8 7 7 8 9 11 12 13 13 12 11 11 11 10 10 11 11 11 11 12 13 14 15 16 17 18 18 18 17 16 16 16 17 17 17 18 18 18 18 18 17 16
24 23 22 21 19 17 15 13 12 11 11 11 11 11 11 11 12 12 11 11 11 12 12 12 11 10 9 8 8 9 10 12 13 14 14 13 12 11 10 10 10 11 12 13 13 14 14 15 15 16 17 18 18 17 17 16 15 15 16 16 17 17 17 18 18 18 17 17 17
23 22 20 19 17 15 14 13 12 11 11 12 12 13 13 13 13 13 12 11 11 11 11 12 11 11 11 11 12 12 13 14 14 14 14 13 12 11 10 10 10 11 12 13 14 15 15 15 15 16 16 16 16 16 15 15 14 15 15 16 16 17 17 17 18 18 18 17 17
21 19 18 17 16 15 14 13 13 13 13 14 14 15 15 15 14 13 11 10 10 11 12 12 13 13 13 13 13 14 14 14 14 14 14 14 13 12 11 11 12 11 12 13 14 15 15 15 15 15 15 14 14 14 13 13 13 13 14 15 15 16 17 17 18 18 18 18 17
18 17 16 16 16 15 15 15 15 15 16 16 16 16 16 15 15 13 12 11 11 12 12 13 13 14 14 14 14 14 14 15 15 14 14 14 14 13 12 12 12 12 13 13 14 14 14 14 14 14 14 13 12 12 12 11 11 12 13 13 14 15 16 17 17 18 18 18 18
16 16 16 16 16 16 16 16 16 16 16 16 16 16 16 15 15 14 13 13 12 13 13 14 14 14 14 14 14 14 14 15 15 15 15 15 15 14 13 12 12 13 13 13 14 14 14 14 14 14 13 11 11 11 11 10 10 11 12 13 14 15 16 16 17 17 18 18 18
15 15 15 15 15 15 15 15 15 15 15 15 15 15 15 15 15 14 14 14 14 14 14 15 15 15 14 14 13 14 14 15 16 16 16 15 15 14 13 13 13 13 13 13 13 13 13 13 13 13 12 10 10 10 9 8 9 10 12 13 14 15 16 17 18 18 18 18 18
Wind_Direction
300 302 303 302 301 299 295 292 291 291 291 291 289 288 287 286 285 284 284 283 281 279 276 272 268 265 263 261 261 262 263 263 262 261 260 260 262 265 268 271 273 273 272 271 270 268 266 263 258 253 249 247 246 248 250 252 253 253 252 251 251 252 252 252 250 247 245 243 241
306 305 304 302 299 296 293 290 289 289 289 289 288 287 285 283 282 282 281 280 279 278 276 273 269 266 263 261 260 261 263 264 263 262 261 261 263 266 270 273 274 275 273 271 269 266 264 261 256 251 246 243 243 245 248 250 251 252 252 251 250 249 249 248 246 245 242 239 234
308 306 303 301 298 295 291 288 286 285 285 286 287 287 285 284 282 281 279 278 276 275 274 273 270 267 264 262 262 262 263 264 265 265 265 265 267 269 272 275 276 276 275 274 270 267 263 259 255 250 246 243 243 244 245 247 249 251 252 251 250 248 247 245 244 243 240 237 232
308 307 305 303 301 298 294 290 286 283 283 283 285 286 286 286 285 284 283 281 279 276 274 273 271 270 268 266 265 264 264 264 264 265 267 270 273 275 276 277 277 276 275 274 272 268 264 259 254 250 246 244 244 245 246 247 248 249 250 250 251 250 248 244 239 236 237 240 239
310 309 308 306 305 303 300 296 292 287 285 283 283 284 285 286 286 285 285 284 282 280 278 276 274 272 270 269 268 266 264 262 262 263 266 271 275 278 279 277 275 273 271 270 270 268 265 261 257 253 250 248 249 251 251 251 250 250 249 249 247 246 243 238 236 240 248 257 256
312 311 310 309 308 307 305 303 300 297 294 292 289 288 287 286 285 283 282 281 280 279 278 277 275 273 271 270 268 267 265 264 263 264 266 269 272 275 277 276 274 272 269 268 267 266 265 264 264 262 259 259 259 258 256 254 253 252 252 251 249 248 247 248 250 256 263 266 259
313 313 312 310 309 308 307 306 306 305 303 302 299 297 294 291 288 284 282 280 278 277 276 276 275 275 273 271 271 270 270 270 269 268 268 269 271 273 275 276 275 274 272 270 268 267 268 271 272 273 272 272 270 265 259 255 253 253 256 261 262 261 259 257 256 256 255 251 243
314 313 313 312 311 310 309 309 308 308 307 306 305 303 300 297 293 289 285 281 278 275 274 275 276 276 276 276 277 279 279 279 277 276 275 275 276 277 278 278 277 276 275 273 273 275 278 280 278 278 279 276 270 265 260 256 253 252 254 259 262 260 256 251 247 242 236 232 233
315 314 314 314 314 313 312 311 310 309 308 307 305 304 302 300 297 293 289 285 280 276 275 276 280 282 282 283 283 284 284 283 282 282 283 285 285 285 285 285 283 282 280 280 283 289 292 290 285 282 279 274 270 266 263 257 254 252 250 250 250 249 246 240 235 232 229 229 234
316 315 315 315 315 315 314 314 313 311 309 307 306 304 302 300 298 296 292 289 284 281 282 284 288 291 291 290 289 288 287 287 286 287 289 291 292 294 295 296 295 294 293 291 294 297 298 296 290 278 269 269 270 270 267 261 258 256 253 249 247 246 243 239 237 236 235 236 241
316 315 315 314 315 315 316 315 314 313 311 308 306 304 302 300 298 297 296 294 293 294 297 300 301 302 302 301 298 296 294 293 293 294 296 300 305 309 309 305 302 301 299 295 293 294 294 289 278 262 257 264 269 271 270 267 265 263 260 255 250 247 244 241 241 241 243 247 252
315 314 314 314 315 316 316 316 315 313 311 308 306 304 303 301 300 300 302 306 311 315 318 320 319 317 313 309 304 302 301 301 304 309 316 322 327 328 322 312 305 300 297 294 292 291 287 278 265 258 258 263 268 270 272 272 272 272 269 264 257 249 243 239 238 238 242 251 260
314 314 314 315 315 316 316 316 314 313 311 309 308 308 307 307 306 308 314 327 341 350 348 339 332 325 319 314 309 310 314 318 323 330 335 336 336 329 320 311 304 299 296 295 294 291 288 282 275 271 270 272 274 274 272 271 271 272 271 268 261 252 242 236 233 232 234 243 255
316 316 316 316 316 316 316 315 314 313 312 312 312 314 317 319 320 323 330 342 354 360 356 346 336 326 318 316 319 324 329 332 335 338 339 337 330 322 315 310 307 305 303 302 300 299 298 295 292 291 292 294 295 289 279 272 270 270 270 268 264 256 245 235 230 228 231 237 247
318 318 317 317 317 317 317 316 315 315 315 315 316 321 327 332 335 337 340 344 349 354 356 348 333 322 320 324 332 338 341 342 343 343 340 335 329 326 324 324 324 322 321 319 320 322 324 320 318 317 321 328 331 326 312 295 285 279 277 276 275 271 262 248 238 234 236 241 248
321 320 320 319 319 319 318 318 317 317 318 317 318 323 331 337 342 343 344 344 348 353 354 346 335 329 330 337 344 348 351 352 353 350 345 343 344 347 350 352 351 349 347 347 351 356 358 353 348 345 349 356 2 7 8 1 347 332 323 322 323 325 326 321 311 296 283 275 271
323 323 322 322 321 320 319 319 318 318 318 317 318 322 327 333 336 339 340 342 345 348 349 345 338 335 339 345 346 346 346 349 350 349 349 352 356 1 5 9 8 7 7 8 13 17 17 16 13 12 14 20 26 32 37 36 31 23 15 8 2 358 356 355 355 355 351 346 338
324 323 323 322 322 320 319 318 317 316 316 316 317 319 322 325 326 327 330 334 340 343 342 336 329 328 331 334 332 327 324 326 335 340 341 344 346 351 358 5 11 15 17 20 25 27 26 25 24 26 30 33 34 36 36 32 24 15 7 359 354 350 348 347 346 345 344 342 337
323 322 322 321 320 319 318 317 317 316 316 316 317 318 319 320 320 321 326 335 341 339 332 325 324 325 325 321 320 318 318 321 327 330 331 331 332 334 340 352 5 13 16 18 21 21 20 18 18 18 20 19 15 10 5 358 350 343 340 339 338 336 334 332 331 328 326 322 317
321 321 320 319 319 318 318 318 319 319 318 319 320 321 322 321 322 326 334 345 347 340 331 328 333 339 343 339 333 331 330 329 328 328 330 330 332 334 339 347 355 358 359 359 360 0 360 359 359 359 358 356 353 349 346 343 339 336 334 332 330 328 326 324 322 320 317 312 307
320 320 319 319 318 319 320 322 324 325 325 326 328 330 331 332 335 341 349 354 353 351 350 350 349 349 349 345 342 340 337 333 332 332 335 341 345 348 350 350 351 352 352 350 348 347 347 347 348 348 347 347 346 345 344 341 338 336 333 330 327 324 321 318 315 313 309 305 299
319 319 319 319 320 321 324 327 330 332 334 337 340 343 348 352 356 359 3 6 7 7 5 359 354 352 351 346 342 342 342 342 345 348 351 356 358 358 357 355 355 355 356 354 349 346 346 347 348 348 348 348 347 345 343 339 335 332 328 325 321 318 314 310 307 303 299 295 289
319 319 320 321 322 325 328 331 335 339 344 349 353 356 2 11 15 16 16 15 13 13 6 354 358 5 5 360 351 348 351 356 1 3 4 4 3 2 0 359 357 357 355 351 347 346 348 349 351 351 351 350 349 345 341 336 332 327 323 319 316 312 308 305 301 297 293 289 285
319 320 321 323 325 328 331 335 339 345 352 358 1 5 13 29 36 33 25 16 15 16 12 360 4 7 5 1 1 3 4 5 9 10 10 8 3 359 355 351 348 346 343 340 342 346 349 351 352 353 353 353 350 346 341 334 329 324 320 316 313 310 307 303 300 296 292 288 285
320 322 324 326 328 330 333 336 341 348 356 2 3 13 31 46 47 40 31 26 24 20 15 10 4 359 357 0 7 12 13 13 14 13 9 3 356 350 345 340 336 333 331 329 335 341 347 349 350 351 352 352 349 344 338 332 326 322 318 315 312 309 306 302 299 294 290 287 283
324 326 328 329 331 332 334 336 339 346 355 4 13 25 38 44 42 39 35 28 21 14 8 2 358 359 5 11 16 19 18 15 13 8 1 353 346 341 337 333 328 322 318 316 321 329 336 339 341 343 345 345 343 340 335 330 325 320 316 312 309 306 303 300 297 294 291 288 285
329 331 332 333 333 334 334 336 339 345 355 5 12 23 34 37 34 33 30 22 12 6 2 1 2 7 12 15 17 16 11 5 2 357 349 341 336 332 329 325 321 315 308 302 303 308 315 319 322 326 332 336 336 335 333 329 325 319 315 311 308 305 302 300 299 298 297 296 295
335 337 337 336 336 335 336 338 342 349 358 7 14 25 33 33 31 27 21 13 5 3 4 4 2 1 0 359 360 357 354 350 346 340 335 330 324 322 320 319 316 311 304 294 289 288 290 293 297 306 317 326 330 331 330 327 322 317 312 309 307 305 304 303 303 303 304 304 303
341 341 340 339 339 339 340 343 347 354 3 12 21 27 28 23 21 16 9 3 5 6 4 356 347 338 332 329 333 335 335 334 331 327 322 317 313 311 311 311 312 312 307 294 281 274 271 272 276 290 309 322 327 328 327 323 318 312 308 306 304 303 303 303 303 303 303 303 302
344 343 342 341 342 345 348 353 355 359 5 8 4 6 7 3 8 5 1 3 4 360 352 341 327 316 311 312 315 317 317 317 315 313 310 308 307 309 313 319 324 324 320 306 277 259 255 256 266 291 316 326 328 327 325 320 315 309 304 301 299 298 298 299 299 299 299 299 298
346 345 343 342 344 349 356 359 359 358 357 357 351 350 354 358 4 2 359 1 352 340 333 325 312 303 301 302 302 302 302 303 303 304 306 310 315 323 330 335 339 342 343 343 294 238 238 251 282 316 328 330 330 329 326 322 317 310 304 300 297 296 296 296 297 297 297 297 296
347 347 345 344 345 349 354 358 359 356 353 353 350 349 354 4 360 353 346 336 323 316 310 304 295 291 291 294 295 297 299 300 301 304 310 317 326 334 338 340 345 349 356 7 16 359 295 309 324 330 332 332 332 332 331 327 321 314 309 304 301 299 298 298 298 297 297 296 295
348 349 348 347 346 346 348 350 352 352 351 354 353 352 350 347 339 329 316 304 299 296 291 287 284 284 286 291 296 301 304 307 310 315 320 324 328 333 336 336 342 350 3 12 13 6 352 341 337 335 335 335 336 337 336 332 325 319 313 309 306 304 303 301 300 299 298 297 297
348 350 350 348 345 344 345 345 346 347 350 352 350 345 338 328 318 308 299 293 291 289 287 284 284 285 289 294 301 308 314 319 325 329 330 329 328 329 330 330 334 342 350 356 359 358 352 346 341 339 337 337 338 338 337 334 328 322 317 313 310 308 306 304 303 302 301 302 304
347 348 349 348 345 344 345 345 344 345 345 343 337 330 322 314 306 301 298 295 294 293 293 292 292 295 300 308 316 322 326 329 332 332 330 328 325 324 324 325 326 328 331 337 343 345 343 339 336 333 332 333 334 336 337 335 330 325 320 316 314 311 310 308 308 308 309 312 315
345 347 348 347 345 344 343 342 341 340 338 333 328 322 316 311 308 305 304 302 301 301 303 306 309 315 323 331 335 335 334 332 330 329 328 326 323 321 320 320 319 319 320 325 329 331 329 327 324 323 323 325 330 335 337 335 331 327 323 320 317 315 315 315 315 315 316 317 318
345 347 348 346 345 343 340 338 337 334 332 330 327 324 321 319 317 315 314 313 312 314 318 324 329 333 335 336 335 333 331 329 328 327 326 326 323 319 314 311 310 310 312 314 316 317 316 314 312 312 315 321 329 335 337 335 331 327 324 322 320 320 320 320 319 319 319 318 317
346 347 346 345 343 341 339 338 338 337 336 335 335 333 331 329 326 325 325 326 327 330 333 334 334 333 331 330 329 328 326 325 324 324 324 324 321 316 308 303 301 303 305 306 307 306 305 304 303 305 309 318 327 333 335 334 330 327 324 323 322 322 322 322 321 320 318 316 315
348 348 347 346 345 345 344 346 347 346 344 342 340 338 336 334 332 331 331 333 335 336 335 332 328 325 323 323 323 324 323 323 321 321 320 319 317 313 307 301 299 300 303 302 301 299 298 298 298 300 305 314 323 328 330 330 327 324 323 323 323 323 322 320 319 317 314 312 311
349 349 349 349 350 350 350 350 349 347 344 340 338 337 335 333 331 330 330 330 331 330 328 324 320 318 318 320 321 322 322 322 320 318 316 314 313 313 312 309 307 307 306 304 300 297 295 295 296 298 303 310 315 319 323 327 324 321 320 322 323 322 321 318 316 314 311 309 308
348 348 348 348 349 348 347 345 342 338 335 332 331 330 329 327 326 325 324 323 323 322 320 318 316 315 316 318 320 321 322 321 319 317 314 313 313 316 318 320 319 318 317 313 307 301 298 296 296 299 302 305 308 313 320 325 321 319 319 321 322 322 320 317 315 312 310 308 306
Height
804 803 803 802 801 800 800 799 799 798 798 797 796 796 795 794 793 792 791 790 789 788 787 786 785 785 785 785 785 785 785 785 785 785 785 785 785 785 785 785 785 785 784 784 784 784 783 783 783 782 782 782 783 783 783 783 784 784 784 784 784 785 785 785 786 786 786 786 787
802 802 801 800 800 799 798 798 797 797 796 796 795 794 794 793 792 790 790 789 788 787 786 785 785 784 784 783 783 783 783 783 783 783 783 783 783 783 783 783 782 782 782 782 782 782 781 781 781 780 780 780 780 781 781 781 782 782 782 782 783 783 783 784 784 785 785 785 785
801 800 800 799 798 797 796 796 795 795 795 794 793 793 792 791 790 789 788 787 787 786 785 784 783 783 782 781 781 781 781 781 781 781 781 782 781 781 781 781 780 780 780 780 780 780 779 779 779 779 778 778 778 779 779 780 780 780 781 781 781 782 782 782 783 783 784 784 784
800 799 798 798 797 796 795 794 793 793 792 792 791 791 790 790 789 788 787 786 785 785 784 783 782 782 781 780 780 779 779 779 779 779 780 780 780 780 780 779 779 778 778 778 777 777 777 777 777 777 776 776 776 777 777 778 778 779 780 780 780 781 781 781 781 782 782 783 783
798 798 797 796 795 795 794 793 792 791 790 790 790 789 789 788 787 787 786 785 784 783 783 782 781 780 780 779 778 778 777 777 777 777 778 778 779 779 778 777 777 776 775 775 775 775 775 775 775 775 775 775 775 775 776 776 777 777 778 778 779 780 780 780 780 780 781 781 782
797 797 796 795 794 793 792 792 790 790 789 789 788 787 786 786 785 785 784 784 783 782 781 780 779 779 779 779 778 777 776 775 775 775 776 776 777 777 776 775 775 774 773 773 773 773 773 773 773 773 774 774 774 775 775 775 775 776 776 776 777 777 778 778 778 779 780 780 781
797 796 795 794 793 792 791 791 790 789 788 787 786 785 785 784 783 783 782 781 780 780 779 778 777 776 776 777 777 776 776 775 775 775 774 774 775 775 775 774 773 772 771 771 771 771 771 771 771 772 772 772 773 774 774 774 774 774 774 774 775 776 776 776 777 777 778 779 780
796 795 795 794 793 792 791 790 789 788 787 786 785 784 783 782 781 780 780 779 778 777 777 776 775 775 775 776 776 777 776 775 775 774 773 772 772 773 773 773 772 771 770 769 769 769 769 770 770 770 770 772 773 774 774 773 772 772 772 773 774 775 775 775 775 776 776 777 779
796 795 794 793 792 791 790 789 788 787 786 785 784 783 782 781 780 778 777 776 775 775 775 775 775 775 776 777 778 777 776 775 774 772 771 771 771 771 772 772 772 771 770 769 768 768 768 768 769 770 771 772 773 773 772 771 771 771 771 771 772 773 774 774 774 775 775 776 777
796 795 794 793 791 790 790 788 787 786 785 784 783 782 781 780 778 777 775 774 773 772 773 774 776 777 778 779 779 778 776 775 773 772 771 770 770 771 772 772 772 772 771 770 769 768 767 767 769 771 773 773 773 772 771 770 770 770 770 770 771 771 772 772 773 773 774 774 775
795 794 793 792 791 790 789 788 786 785 784 783 782 781 780 778 777 775 774 772 770 771 773 775 776 778 779 779 779 778 777 775 774 772 771 770 770 770 771 772 772 772 771 770 769 768 767 767 769 771 773 773 772 772 771 770 769 769 769 770 770 770 770 770 770 771 772 773 773
794 793 792 791 790 789 788 787 786 785 784 782 781 780 779 777 776 775 772 770 770 771 774 775 776 777 778 779 779 779 778 776 775 774 773 772 771 771 772 773 773 772 771 770 769 769 768 768 768 769 770 771 771 770 770 769 768 768 769 769 769 768 768 768 768 769 770 771 772
794 792 791 790 790 789 787 786 785 784 783 782 780 779 778 776 775 774 771 770 770 771 772 774 775 777 778 779 780 779 779 777 776 774 774 773 773 774 774 774 774 773 771 770 769 768 768 768 768 769 769 770 770 769 768 767 767 767 768 769 768 767 766 766 766 767 768 769 770
793 792 791 790 789 788 787 785 785 783 782 781 780 779 778 776 775 774 772 770 770 770 771 773 775 777 779 780 780 779 778 776 775 774 774 775 775 776 775 775 774 772 771 770 769 768 768 768 768 768 769 769 769 768 767 767 767 767 768 768 768 767 766 765 765 766 767 768 769
792 791 790 789 788 787 786 785 784 783 782 780 780 779 777 776 775 775 774 772 771 770 771 773 775 777 778 779 779 778 776 776 775 775 775 775 775 775 775 774 773 772 770 770 769 769 768 768 768 768 768 768 768 767 767 766 767 768 768 769 768 767 766 765 765 765 766 767 768
792 791 790 789 788 786 785 784 783 782 781 780 779 778 777 776 775 776 776 775 774 773 773 774 775 776 776 776 776 776 777 777 777 777 776 776 775 775 774 773 772 772 771 770 770 769 769 769 768 768 768 768 767 767 766 766 767 768 769 769 768 768 767 765 765 766 766 767 768
792 791 790 789 787 786 785 784 783 782 781 780 779 778 777 776 776 776 776 776 775 775 774 774 774 774 775 775 776 777 778 778 778 777 777 776 775 775 774 773 773 772 772 771 770 770 770 770 769 769 768 768 767 767 767 767 768 768 769 769 768 768 767 766 766 766 766 767 767
793 791 790 789 787 786 785 784 782 781 780 779 779 778 777 777 776 775 775 775 775 775 774 774 773 773 773 775 776 777 778 778 777 777 776 776 775 775 775 774 774 773 773 772 771 771 770 770 770 769 769 768 768 768 768 768 768 769 769 768 768 768 768 768 767 767 767 767 768
793 792 790 789 787 786 785 783 782 781 780 779 778 778 778 777 777 776 775 774 774 774 774 774 773 773 773 774 775 776 776 776 776 776 776 775 775 775 775 775 774 774 773 773 772 772 771 771 770 770 770 769 769 769 769 769 769 769 769 768 768 768 768 768 768 768 768 768 768
794 792 790 789 787 786 784 783 781 780 779 779 778 778 778 778 778 777 775 774 773 773 773 773 773 773 774 774 775 775 776 776 776 776 775 775 775 775 775 774 774 774 773 773 772 772 772 771 771 771 770 770 769 769 769 769 769 769 768 768 768 768 768 768 768 768 768 768 768
793 792 790 789 787 785 784 783 781 780 779 778 778 777 778 778 779 778 777 775 775 774 773 774 774 774 775 775 775 776 776 776 776 776 775 775 775 775 775 774 774 774 773 773 772 772 772 771 771 770 770 769 769 769 769 769 769 769 769 768 768 768 768 768 768 768 768 768 768
793 791 790 788 786 785 784 782 781 780 780 779 778 778 777 778 779 779 779 777 776 775 775 775 775 775 775 775 776 776 776 776 776 776 775 775 775 775 774 774 774 773 773 773 772 772 771 771 771 770 770 769 769 769 769 769 769 769 769 769 768 768 768 768 768 767 767 767 767
792 790 789 787 786 785 784 782 781 780 780 779 779 778 778 778 779 779 779 778 777 777 776 776 776 776 776 776 776 776 776 776 776 776 775 775 775 775 774 774 774 773 773 773 772 772 771 771 770 770 770 770 770 770 770 770 769 769 769 768 768 768 768 768 767 767 767 767 767
791 789 788 787 785 785 784 782 781 781 780 780 779 779 779 779 779 779 779 778 778 777 777 777 777 777 777 777 777 777 777 776 776 776 776 775 775 775 775 774 773 773 772 772 771 771 771 770 770 770 770 770 770 770 770 770 769 769 769 768 768 768 767 767 767 767 767 766 766
790 789 787 786 785 784 783 783 782 781 780 780 780 780 780 780 779 779 779 778 778 777 777 778 778 778 778 778 777 777 777 777 776 776 776 775 775 775 774 774 773 773 772 771 771 771 770 770 770 770 770 770 770 770 770 770 770 769 769 768 768 767 767 767 766 766 766 765 765
790 788 787 786 785 784 783 783 782 781 781 780 780 780 780 780 780 779 779 778 778 778 779 779 779 779 779 778 778 777 777 777 776 776 776 775 775 775 774 773 773 772 772 771 771 770 770 770 770 770 769 769 770 770 770 770 769 769 769 768 768 767 767 766 765 765 765 765 764
789 788 787 786 785 785 784 783 782 782 781 781 781 781 781 781 780 780 779 779 779 780 780 780 780 780 779 779 778 778 777 777 776 776 776 775 775 774 774 773 772 772 771 771 770 770 770 770 769 769 769 769 769 769 769 769 769 769 769 768 768 767 766 766 765 765 764 764 763
789 788 787 786 785 785 784 783 783 782 782 782 782 782 782 781 780 780 780 780 780 781 781 781 781 780 780 779 778 778 777 777 777 776 776 775 775 774 773 773 772 771 771 770 770 770 770 769 769 769 769 769 769 769 769 769 769 769 768 768 767 767 766 765 765 764 764 763 763
790 789 788 787 786 785 785 784 784 783 783 783 783 782 782 781 781 781 781 781 781 782 782 782 782 781 780 780 779 778 778 777 777 776 776 775 775 774 773 772 771 770 770 769 769 769 769 769 769 769 769 769 769 769 769 769 769 768 768 767 767 766 766 765 765 764 763 763 762
790 790 789 788 787 786 786 785 784 784 784 783 783 783 782 782 782 782 782 782 782 782 782 782 782 781 780 780 779 778 778 777 777 776 776 775 774 774 773 772 771 770 769 769 769 769 769 769 769 769 769 769 769 769 769 768 768 768 767 767 766 765 765 765 764 763 763 762 762
791 791 790 789 788 787 787 786 785 785 784 784 784 783 783 783 783 783 783 783 783 782 782 782 781 781 780 780 779 778 778 777 777 776 776 775 775 774 773 772 772 770 769 769 769 769 769 770 770 769 769 769 769 769 768 768 767 767 766 766 765 765 764 764 763 763 762 761 761
792 792 790 790 789 788 787 787 786 785 785 785 784 784 784 784 783 783 783 783 783 782 782 781 780 780 780 779 779 778 777 777 777 776 776 775 775 774 773 772 772 770 769 769 770 770 770 770 770 769 769 769 769 768 768 767 766 766 765 765 764 764 763 763 762 762 761 761 760
793 792 791 790 790 789 788 788 787 787 786 785 785 785 785 784 784 784 783 783 782 782 781 781 780 780 779 779 778 778 777 777 777 776 776 775 775 774 773 773 773 771 770 770 770 770 770 769 769 769 769 768 768 767 767 766 766 765 765 764 763 763 762 762 761 761 760 760 760
794 793 792 791 790 790 789 789 788 788 787 786 786 785 785 785 784 784 783 783 782 782 781 781 780 780 779 779 778 778 777 777 777 776 776 775 775 774 774 773 773 771 770 770 770 769 769 769 769 768 768 768 767 767 766 766 765 765 764 764 763 762 762 762 761 760 760 760 759
795 795 793 793 792 791 790 790 789 788 788 787 786 786 785 785 784 784 783 783 782 782 781 781 780 780 779 779 778 778 777 777 776 776 775 775 774 774 773 773 773 772 770 770 770 769 769 769 768 768 768 767 767 766 766 765 765 764 764 763 763 762 762 761 761 760 760 759 759
797 796 795 794 793 792 791 790 790 789 788 787 787 786 785 785 784 784 783 783 782 782 781 780 780 780 779 779 778 778 777 777 776 775 775 775 774 774 773 773 773 772 770 770 769 769 769 768 768 768 767 767 766 766 766 765 765 764 764 763 763 762 762 761 760 760 759 759 758
799 798 796 795 794 793 792 791 790 790 789 788 787 787 786 785 785 784 783 783 782 782 781 780 780 780 779 778 778 777 777 776 776 775 775 774 774 773 773 773 772 772 771 770 769 769 768 768 767 767 767 766 766 766 765 765 765 764 764 763 763 762 762 761 760 760 759 759 758
800 799 798 797 795 794 793 792 791 790 790 789 788 787 786 785 785 784 784 783 782 782 781 780 780 780 779 778 778 777 777 776 776 775 775 774 774 773 773 772 772 771 771 770 769 768 768 767 767 766 766 765 765 765 765 765 765 764 764 763 763 762 762 761 760 760 759 759 758
801 800 799 798 796 795 794 793 792 791 790 790 789 788 787 786 785 784 784 783 782 782 781 781 780 780 779 778 778 777 776 776 775 775 774 774 773 773 772 771 771 770 770 770 769 768 767 766 766 765 765 765 765 765 765 765 765 764 764 763 763 762 761 761 760 760 759 758 758
802 801 800 799 797 796 795 794 793 792 791 790 789 788 787 786 785 785 784 783 782 782 781 780 780 779 779 778 777 777 776 776 775 775 774 773 773 772 772 771 770 770 770 769 768 767 767 766 765 765 765 764 764 764 764 764 764 764 763 763 762 761 761 760 760 760 759 758 757
803 801 800 799 798 797 795 795 794 792 791 790 790 789 787 786 785 785 784 783 782 782 781 780 780 779 778 777 777 776 776 775 775 774 774 773 772 772 771 771 770 770 769 769 768 767 766 765 765 765 764 764 764 764 764 764 764 763 763 762 762 761 760 760 759 759 758 757 757